Regional Weather Roundup
Issued by NWS Kansas City/Pleasant Hill, MO

Home | Current Version | Previous Version | Graphics & Text | Print | Product List | Glossary Off
Versions: 1 2 3 4 5 6 7 8 9 10 11 12 13 14 15 16 17 18 19 20 21 22 23 24 25 26 27 28 29 30 31 32 33 34 35 36 37 38 39 40 41 42 43 44 45 46 47 48 49 50

000
ASUS43 KEAX 300310
RWREAX

WEATHER ROUNDUP FOR EASTERN KANSAS AND NORTHWEST MISSOURI
NATIONAL WEATHER SERVICE KANSAS CITY/PLEASANT HILL MO
1000 PM CDT MON SEP 29 2014

KSZ040-057-103>105-MOZ028-029-037-043-300400-
...KANSAS CITY METROPOLITAN AREA...

CITY           SKY/WX    TMP DP  RH WIND       PRES   REMARKS
K.C. INTL      CLEAR     69  58  67 SE7       29.95F
K.C. DOWNTOWN  CLEAR     72  60  66 E3        29.94F
LEES SUMMIT    CLEAR     72  58  61 SE6       29.97S
OLATHE - IXD   CLEAR     71  59  65 SE7       29.96S
OLATHE - OJC   CLEAR     70  59  68 SE5       29.96S
LAWRENCE       PTCLDY    64  59  83 SE3       29.94F

$$

MOZ001>008-011>017-020>025-030>033-038>040-044>046-053-054-300400-
...NORTHERN AND CENTRAL MISSOURI...

CITY           SKY/WX    TMP DP  RH WIND       PRES   REMARKS
ST. JOSEPH     CLEAR     61  56  83 CALM      29.94F
MOSBY          CLEAR     63  63 100 CALM      29.95F
WHITEMAN AFB   CLEAR     63  59  88 S3        29.95F
CLINTON        CLEAR     64  63  94 CALM      29.96S FOG
SEDALIA        CLEAR     67  57  70 S3        29.97S
WARSAW         NOT AVBL
MARSHALL       CLEAR     72  61  68 E6        29.97S
CHILLICOTHE      N/A     63  60  90 CALM      29.97F
MOBERLY        CLEAR     63  57  82 CALM      29.98S
KIRKSVILLE     CLEAR     59  57  93 CALM      29.98S

$$

MOZ041-047>049-056>058-063>065-088>090-097-300400-
...EASTERN AND SOUTHERN MISSOURI...

CITY           SKY/WX    TMP DP  RH WIND       PRES   REMARKS
ST. LOUIS INTL CLEAR     72  59  63 CALM      29.97S
SPIRIT OF STL  CLEAR     62  60  93 W3        29.96S
COLUMBIA       CLEAR     68  58  70 E6        29.98S
JEFFERSON CITY CLEAR     64  59  83 E3        29.96S
MEXICO         CLEAR     63  63 100 CALM      29.97S
HANNIBAL       CLEAR     66  55  68 CALM      29.97S
ROLLA          CLEAR     68  52  56 E5        29.97F
LEBANON        CLEAR     64  55  72 CALM      29.99F
OSAGE BEACH    CLEAR     64  57  77 CALM      29.97S
SPRINGFIELD    CLEAR     65  57  75 CALM      29.98S
BRANSON        CLEAR     68  57  68 S3        29.99S
NEVADA         CLEAR     66  61  82 SE5       29.97S
JOPLIN         CLEAR     68  59  73 SE3       29.97S
WEST PLAINS    PTCLDY    65  60  84 CALM      30.00S

$$

IAZ060-094-KSZ022-034>040-054-083-096-NEZ052-066-093-300400-
...KANSAS...SOUTHEAST NEBRASKA AND IOWA...

CITY           SKY/WX    TMP DP  RH WIND       PRES   REMARKS
TOPEKA         CLEAR     69  62  78 CALM      29.94S
MANHATTAN      CLEAR     68  59  73 S5        29.92S
EMPORIA        CLEAR     67  60  78 SE8       29.94S
CHANUTE        CLEAR     65  61  87 SE6       29.95S
WICHITA        PTCLDY    74  58  57 SE13      29.93R
OMAHA          CLEAR     64  59  83 N3        29.93F
LINCOLN        CLEAR     69  55  60 SE3       29.92F
FALLS CITY     CLEAR     67  57  70 SE6       29.93S
LAMONI         CLEAR     72  56  57 SE6       29.97S
DES MOINES     CLEAR     69  61  75 NE12      29.98R

$$




USA.gov is the U.S. government's official web portal to all federal, state and local government web resources and services.